Location: Augirein
(42.9320°N, 0.9181°E)
Time: 20:37:52
(UTC+00:00)

Cosmos 2026 Rocket - Pass Details

Date: 20 June 2021
Orbit: 939 x 1001 km, 82.9° (Epoch: 23 July)

Event Time Altitude Azimuth Distance (km) Brightness Sun altitude
Exits shadow 02:16:01 25° 207° (SSW) 1,876 4.9 -16.4°
Maximum altitude 02:19:46 62° 281° (W) 1,107 4.2 -16.0°
Drops below altitude 10° 02:26:04 10° 1° (N) 2,770 7.2 -15.4°
Sets 02:28:40 0° 5° (N) 3,728 8.1 -15.1°
